Regional Weather Roundup
Issued by NWS Green Bay, WI

Home | Current Version | Previous Version | Graphics & Text | Print | Product List | Glossary Off
Versions: 1 2 3 4 5 6 7 8 9 10 11 12 13 14 15 16 17 18 19 20 21 22 23 24 25 26 27 28 29 30 31 32 33 34 35 36 37 38 39 40 41 42 43 44 45 46 47 48 49 50

000
ASUS43 KGRB 110500
RWRGRB

NORTH-CENTRAL AND NORTHEAST WISCONSIN REGIONAL WEATHER ROUNDUP
NATIONAL WEATHER SERVICE GREEN BAY WI
1100 PM CST SUN DEC 10 2017

WIZ005-009-010>012-018-019-110600-
NORTH CENTRAL WISCONSIN

CITY           SKY/WX    TMP DP  RH WIND       PRES   REMARKS
IRONWOOD       CLOUDY    13   9  84 S7        29.96F WCI   3
MANITOWISH WTR NOT AVBL
ARBOR VITAE    NOT AVBL
EAGLE RIVER    NOT AVBL
LAND O LAKES   NOT AVBL
RHINELANDER    CLOUDY     9   6  88 W3        29.97R
PHILLIPS       NOT AVBL
ANTIGO         NOT AVBL
TOMAHAWK       NOT AVBL
MERRILL        NOT AVBL
$$

WIZ013-073-110600-
NORTHEAST WISCONSIN

CITY           SKY/WX    TMP DP  RH WIND       PRES   REMARKS
IRON MOUNTAIN  CLOUDY    13   9  84 CALM      29.97F
MARINETTE      PTCLDY    10   2  69 CALM      30.05S
$$

WIZ017-030-035>037-045-110600-
CENTRAL WISCONSIN

CITY           SKY/WX    TMP DP  RH WIND       PRES   REMARKS
MEDFORD        NOT AVBL
WAUSAU         CLOUDY    19  12  74 W3        29.99R
MOSINEE        NOT AVBL
MARSHFIELD     CLOUDY    16  13  88 SW5       29.98F WCI   9
WISC RAPIDS    CLOUDY    17  12  80 CALM      30.02F
STEVENS POINT  NOT AVBL
WAUPACA        NOT AVBL
SHAWANO        NOT AVBL
CLINTONVILLE   NOT AVBL
WAUTOMA        CLOUDY    23  15  71 SW3       30.04S
$$

WIZ038-039-048-051-110600-
FOX VALLEY

CITY           SKY/WX    TMP DP  RH WIND       PRES   REMARKS
NWS GREEN BAY  CLOUDY    21  14  74 NE5       30.03F
APPLETON       MOCLDY    25  12  58 CALM      30.01F
OSHKOSH        CLOUDY    25  16  68 CALM      30.03F
FOND DU LAC    CLOUDY    25  15  66 W5        30.04F
$$

WIZ022-050-052-110600-
EAST CENTRAL WISCONSIN

CITY           SKY/WX    TMP DP  RH WIND       PRES   REMARKS
EPHRAIM        NOT AVBL
WASHINGTON ISL NOT AVBL
STURGEON BAY   MOCLDY    18   9  68 NW7       30.04F WCI   9
MANITOWOC      CLOUDY    18  12  77 CALM      30.05S
SHEBOYGAN      CLOUDY    24  17  74 CALM      30.04S
$$

LMZ563-521-522-541>543-110600-
LAKESHORE

STATION/POSITION TIME  TEMP    WIND        PRES    VSBY  WAVE
                       AIR SEA DIR/SP/G                  HT/PER
                 (UTC) (F)     (DEG/KT/KT) (MB)    (MI)  (FT/S)
SHEBOYGAN LKSHOR 0400   26     320/  7/  9 1018.4F
KEWAUNEE LKSHORE 0430   19     270/  1/  2 1016.7S
NORTHPORT PIER   0440   19     290/  7/ 14 1016.9F
MENOMINEE LKSHOR 0430   20     350/  6/  9 1017.0S
$$




USA.gov is the U.S. government's official web portal to all federal, state and local government web resources and services.